[[{"header":{"parameterUnit":"m.s-1","parameterCategory":1,"la1":30.2992,"la2":30.254,"lo1":-89.0895,"lo2":-89.0443,"dy":0.0025,"dx":0.0025,"nx":19,"ny":19,"refTime":"2026-04-17T21:00:00:Z","depth":0,"parameterNumber":2,"parameterNumberName":"U-component_of_WINDS"},"data":[0,0,0,1.1568,1.1569,1.1643,1.1644,1.1751,1.1752,0,0,0,0,0,0,0,0,0,0,0,1.1553,1.1554,1.1567,1.1569,1.1643,1.1644,1.1751,1.1752,0,0,0,0,0,0,0,0,0,0,0,1.1553,1.1554,1.1555,1.157,1.1643,1.1644,1.1751,1.169,0,0,0,0,0,0,0,0,0,0,1.1616,1.1611,1.1554,1.1555,1.157,1.1643,1.1644,1.1687,1.1694,1.1723,0,1.175,0,1.1753,1.176,1.176,0,0,0,1.1564,1.1605,1.1618,1.1555,1.1571,1.1643,1.1608,1.1691,1.1699,1.1732,1.1752,1.1755,1.1755,1.1761,1.1761,1.1943,1.1944,0,0,1.156,1.1571,1.1612,1.1623,1.1612,1.1606,1.1611,1.1695,1.1718,1.1752,1.1758,1.1756,1.1762,1.1763,1.1942,1.1943,0,0,0,1.1552,1.1569,1.1579,1.1619,1.1631,1.1608,1.1614,1.1714,1.1716,1.1759,1.1758,1.1762,1.1764,1.1941,1.1942,1.2007,0,0,0,1.1549,1.1564,1.1577,1.1585,1.163,1.1674,1.1631,1.1711,1.172,1.1757,1.1762,1.1765,1.194,1.1942,1.2003,1.2037,0,0,0,1.1546,1.1563,1.1576,1.1586,1.1618,1.1672,1.1679,1.1712,1.172,1.1761,1.1765,1.1939,1.1941,1.1999,1.2031,1.2088,0,0,0,1.1546,1.1635,1.1578,1.1676,1.1617,1.1711,1.1678,1.1748,1.1791,1.1763,1.194,1.1942,1.1998,1.2027,1.2083,1.2138,1.2162,0,0,1.1665,1.165,1.1707,1.1657,1.1765,1.1699,1.1816,1.1845,1.1839,1.1909,1.1913,1.2005,1.203,1.2087,1.2289,1.2308,0,0,0,1.1748,1.1789,1.1815,1.1855,1.1878,1.1901,1.191,1.1921,1.1979,1.1877,1.204,1.2055,1.2087,1.2113,1.2129,1.2156,1.1954,1.1954,1.1954,1.1934,1.1919,1.2012,1.2006,1.2045,1.2052,1.2083,1.2098,1.2074,1.2112,1.2133,1.2257,1.2288,1.23,1.2328,1.216,1.216,1.216,1.2161,1.2107,1.2162,1.2124,1.22,1.2184,1.2248,1.2257,1.2237,1.2294,1.2241,1.2269,1.2213,1.2321,1.2345,1.2165,1.2165,1.2164,1.2164,1.2163,1.2228,1.2252,1.2261,1.2315,1.2359,1.2349,1.2404,1.2388,1.2373,1.24,1.242,1.2419,1.2416,1.241,1.2411,1.2411,1.2412,1.2412,1.2412,1.235,1.2358,1.2407,1.2436,1.2458,1.2485,1.249,1.2511,1.2531,1.2514,1.2514,1.2486,1.2333,1.2296,1.2419,1.2418,1.2417,1.2416,1.2416,1.2533,1.2488,1.2563,1.2585,1.2616,1.2659,1.2635,1.268,1.2695,1.2722,1.2686,1.2576,1.256,1.2547,1.2516,1.2689,1.2689,1.2689,1.2689,1.2636,1.2625,1.2696,1.2732,1.2764,1.2749,1.2834,1.2837,1.2835,1.2843,1.2814,1.2771,1.2759,1.275,1.2733,1.2704,1.292,1.2921,1.2921,1.2747,1.2738,1.2814,1.2808,1.283,1.2849,1.2927,1.2969,1.2957,1.293,1.2848,1.2839,1.2768,1.2746,1.2721,1.2694,1.264,0,0]},{"header":{"parameterUnit":"m.s-1","parameterCategory":1,"la1":30.2992,"la2":30.254,"lo1":-89.0895,"lo2":-89.0443,"dy":0.0025,"dx":0.0025,"nx":19,"ny":19,"refTime":"2026-04-17T21:00:00:Z","depth":0,"parameterNumber":3,"parameterNumberName":"V-component_of_WINDS"},"data":[0,0,0,4.7009,4.7011,4.7075,4.7075,4.7166,4.7167,0,0,0,0,0,0,0,0,0,0,0,4.6999,4.7,4.7009,4.7011,4.7075,4.7075,4.7166,4.7167,0,0,0,0,0,0,0,0,0,0,0,4.6999,4.7,4.7001,4.7011,4.7075,4.7075,4.7166,4.7113,0,0,0,0,0,0,0,0,0,0,4.705,4.7049,4.6999,4.7001,4.7012,4.7075,4.7075,4.7111,4.7117,4.7142,0,4.717,0,4.717,4.7174,4.7174,0,0,0,4.7004,4.7044,4.7054,4.7001,4.7012,4.7074,4.7044,4.7114,4.7121,4.715,4.7171,4.7174,4.7172,4.7175,4.7175,4.7351,4.7352,0,0,4.7,4.7014,4.705,4.7059,4.7053,4.7042,4.7046,4.7118,4.714,4.7171,4.7176,4.7173,4.7175,4.7176,4.735,4.7351,0,0,0,4.6995,4.7012,4.702,4.7056,4.7066,4.7044,4.7049,4.7137,4.7138,4.7177,4.7174,4.7176,4.7177,4.7349,4.735,4.7421,0,0,0,4.6993,4.7009,4.7019,4.7028,4.7065,4.7103,4.7066,4.7133,4.7141,4.7174,4.7176,4.7178,4.7347,4.735,4.7416,4.7451,0,0,0,4.6992,4.7009,4.7022,4.7029,4.7057,4.7102,4.7107,4.7135,4.714,4.7174,4.7178,4.7346,4.7349,4.7412,4.7444,4.75,0,0,0,4.6994,4.7083,4.7023,4.7121,4.7057,4.7146,4.7106,4.7172,4.721,4.7176,4.7348,4.735,4.7411,4.744,4.7495,4.7548,4.7572,0,0,4.7114,4.7098,4.7154,4.7102,4.7206,4.7135,4.7248,4.7269,4.7258,4.732,4.7324,4.7418,4.7443,4.7499,4.7705,4.7724,0,0,0,4.7197,4.7237,4.7262,4.73,4.7319,4.7337,4.7339,4.7347,4.7398,4.7294,4.7454,4.7468,4.75,4.7525,4.7541,4.7566,4.7363,4.7363,4.7362,4.7385,4.7368,4.7459,4.745,4.7487,4.7488,4.7516,4.7525,4.7497,4.7535,4.7552,4.768,4.7709,4.7721,4.7748,4.758,4.7581,4.7581,4.7581,4.7556,4.761,4.7571,4.7645,4.7626,4.7687,4.7691,4.7669,4.7721,4.7665,4.7692,4.7631,4.7743,4.7765,4.7586,4.7585,4.7585,4.7584,4.7584,4.7676,4.7698,4.7707,4.7759,4.7801,4.7788,4.784,4.7821,4.7803,4.783,4.7845,4.7843,4.7838,4.7839,4.7839,4.784,4.784,4.784,4.7841,4.7795,4.7803,4.785,4.7878,4.7899,4.7924,4.7926,4.7946,4.7962,4.7943,4.7943,4.7909,4.7758,4.7719,4.7847,4.7846,4.7845,4.7845,4.7844,4.7971,4.7928,4.8002,4.8023,4.8053,4.8094,4.807,4.8111,4.8124,4.815,4.8111,4.8003,4.7984,4.7971,4.7939,4.8116,4.8116,4.8116,4.8116,4.807,4.8059,4.8129,4.8164,4.8196,4.8181,4.8262,4.8264,4.8259,4.8266,4.8238,4.8194,4.8181,4.817,4.8152,4.8121,4.8341,4.8341,4.8342,4.8176,4.8167,4.8241,4.8237,4.8259,4.8278,4.8352,4.8392,4.8377,4.835,4.827,4.826,4.8189,4.8167,4.8136,4.8109,4.8052,0,0]}]]